Clinton, OK

4:55 AM CDT on September 24, 2017 (GMT -0500)
Clinton Municipal

Weather History for KCLK - December, 2012

Change the Weather History Date:

Saturday, December 1, 2012

  Actual Average (KCSM) Record (KCSM)
Temperature  
Mean Temperature 60 °F -  
Max Temperature 77 °F 53 °F 75 °F (2012)
Min Temperature 44 °F 33 °F 10 °F (2006)
Degree Days  
Heating Degree Days 4    
Growing Degree Days 10 (Base 50)    
Moisture  
Dew Point 37 °F    
Average Humidity 51    
Maximum Humidity 82    
Minimum Humidity 12    
Precipitation  
Precipitation 0.00 in - - ()
Sea Level Pressure  
Sea Level Pressure 29.86 in    
Wind  
Wind Speed 13 mph (South)    
Max Wind Speed 20 mph    
Max Gust Speed 24 mph    
Visibility 10 miles    
Events      
Averages and records for this station are not official NWS values.
T = Trace of Precipitation, MM = Missing Value Source: NWS Daily Summary

Daily Weather History Graph

Daily Weather History Graph

Search for Another Location

Airport or City:

Trip Planner

Search our weather history database for the weather conditions in past years. The results will help you decide how hot, cold, wet, or windy it might be!

Date:

Astronomy

Dec. 01, 2012 Rise Set
Actual Time 7:27 AM CST 5:22 PM CST
Civil Twilight 6:59 AM CST 5:50 PM CST
Nautical Twilight 6:27 AM CST 6:22 PM CST
Astronomical Twilight 5:56 AM CST 6:52 PM CST
Moon 8:12 PM CST (12/1) 9:42 AM CST (12/1)
Length of Visible Light 10h 51m
Length of Day
9h 55m
Waning Gibbous, 91% of the Moon is Illuminated
Dec 1
Waning Gibbous
Dec 6
Last Quarter
Dec 13
New
Dec 19
First Quarter
Dec 28
Full

Hourly Weather History & Observations

Time (CST) Temp. Windchill Dew Point Humidity Pressure Visibility Wind Dir Wind Speed Gust Speed Precip Events Conditions
12:15 AM 53.6 °F - 48.2 °F 82% 29.90 in 10.0 mi SSE 13.8 mph - N/A   Clear
12:35 AM 53.6 °F - 48.2 °F 82% 29.90 in 10.0 mi SSE 13.8 mph - N/A   Clear
12:55 AM 53.6 °F - 46.4 °F 77% 29.89 in 10.0 mi SSE 13.8 mph - N/A   Clear
1:15 AM 53.6 °F - 46.4 °F 77% 29.88 in 10.0 mi SSE 15.0 mph - N/A   Clear
1:35 AM 53.6 °F - 46.4 °F 77% 29.88 in 10.0 mi SSE 15.0 mph - N/A   Clear
1:55 AM 53.6 °F - 46.4 °F 77% 29.87 in 10.0 mi SSE 13.8 mph - N/A   Clear
2:15 AM 51.8 °F - 46.4 °F 82% 29.87 in 10.0 mi South 11.5 mph - N/A   Clear
2:35 AM 51.8 °F - 46.4 °F 82% 29.86 in 10.0 mi South 12.7 mph - N/A   Clear
2:55 AM 53.6 °F - 46.4 °F 77% 29.86 in 10.0 mi South 13.8 mph 18.4 mph N/A   Clear
3:15 AM 51.8 °F - 46.4 °F 82% 29.86 in 10.0 mi South 11.5 mph - N/A   Clear
3:35 AM 51.8 °F - 44.6 °F 76% 29.85 in 10.0 mi South 11.5 mph - N/A   Clear
3:55 AM 51.8 °F - 44.6 °F 76% 29.85 in 10.0 mi South 13.8 mph - N/A   Clear
4:15 AM 51.8 °F - 44.6 °F 76% 29.84 in 10.0 mi SSE 13.8 mph - N/A   Clear
4:35 AM 51.8 °F - 44.6 °F 76% 29.85 in 10.0 mi SSW 8.1 mph - N/A   Clear
4:55 AM 50.0 °F - 44.6 °F 82% 29.84 in 10.0 mi South 10.4 mph - N/A   Clear
5:15 AM 51.8 °F - 42.8 °F 71% 29.83 in 10.0 mi South 15.0 mph - N/A   Clear
5:35 AM 51.8 °F - 42.8 °F 71% 29.83 in 10.0 mi South 13.8 mph - N/A   Clear
5:55 AM 51.8 °F - 42.8 °F 71% 29.84 in 10.0 mi South 13.8 mph 19.6 mph N/A   Clear
6:15 AM 51.8 °F - 42.8 °F 71% 29.84 in 10.0 mi South 16.1 mph 20.7 mph N/A   Clear
6:35 AM 51.8 °F - 42.8 °F 71% 29.84 in 10.0 mi South 13.8 mph 20.7 mph N/A   Clear
6:55 AM 50.0 °F - 42.8 °F 76% 29.84 in 10.0 mi South 15.0 mph - N/A   Clear
7:15 AM 50.0 °F - 42.8 °F 76% 29.84 in 10.0 mi South 15.0 mph - N/A   Clear
7:35 AM 50.0 °F - 42.8 °F 76% 29.85 in 10.0 mi South 12.7 mph - N/A   Clear
7:55 AM 50.0 °F - 42.8 °F 76% 29.84 in 10.0 mi South 16.1 mph - N/A   Clear
8:15 AM 50.0 °F - 42.8 °F 76% 29.84 in 10.0 mi South 13.8 mph - N/A   Clear
8:35 AM 51.8 °F - 42.8 °F 71% 29.85 in 10.0 mi South 16.1 mph - N/A   Clear
8:55 AM 51.8 °F - 41.0 °F 67% 29.86 in 10.0 mi South 13.8 mph - N/A   Clear
9:15 AM 53.6 °F - 41.0 °F 62% 29.85 in 10.0 mi South 17.3 mph - N/A   Clear
9:35 AM 55.4 °F - 41.0 °F 58% 29.85 in 10.0 mi South 12.7 mph 18.4 mph N/A   Clear
9:55 AM 55.4 °F - 41.0 °F 58% 29.86 in 10.0 mi South 12.7 mph - N/A   Clear
10:15 AM 60.8 °F - 41.0 °F 48% 29.86 in 10.0 mi South 17.3 mph - N/A   Clear
10:35 AM 62.6 °F - 41.0 °F 45% 29.86 in 10.0 mi South 16.1 mph - N/A   Clear
10:55 AM 64.4 °F - 39.2 °F 40% 29.86 in 10.0 mi SSW 17.3 mph - N/A   Clear
11:15 AM 64.4 °F - 41.0 °F 42% 29.86 in 10.0 mi South 18.4 mph - N/A   Clear
11:35 AM 64.4 °F - 39.2 °F 40% 29.86 in 10.0 mi South 17.3 mph - N/A   Clear
11:55 AM 69.8 °F - 35.6 °F 28% 29.85 in 10.0 mi SSW 18.4 mph - N/A   Clear
12:15 PM 69.8 °F - 35.6 °F 28% 29.84 in 10.0 mi SSW 18.4 mph 23.0 mph N/A   Clear
12:35 PM 69.8 °F - 33.8 °F 27% 29.84 in 10.0 mi SSW 19.6 mph 24.2 mph N/A   Clear
12:55 PM 71.6 °F - 32.0 °F 23% 29.84 in 10.0 mi SSW 17.3 mph - N/A   Clear
1:15 PM 71.6 °F - 32.0 °F 23% 29.84 in 10.0 mi SSW 13.8 mph - N/A   Clear
1:35 PM 73.4 °F - 28.4 °F 19% 29.83 in 10.0 mi SW 15.0 mph 21.9 mph N/A   Clear
1:55 PM 73.4 °F - 28.4 °F 19% 29.82 in 10.0 mi SW 18.4 mph - N/A   Clear
2:15 PM 73.4 °F - 26.6 °F 18% 29.82 in 10.0 mi SW 15.0 mph - N/A   Clear
2:35 PM 77.0 °F - 23.0 °F 13% 29.81 in 10.0 mi SSW 13.8 mph 18.4 mph N/A   Clear
2:55 PM 77.0 °F - 23.0 °F 13% 29.81 in 10.0 mi SSW 13.8 mph - N/A   Clear
3:15 PM 77.0 °F - 21.2 °F 12% 29.82 in 10.0 mi SSW 9.2 mph - N/A   Clear
3:35 PM 77.0 °F - 23.0 °F 13% 29.82 in 10.0 mi South 13.8 mph - N/A   Clear
3:55 PM 73.4 °F - 24.8 °F 16% 29.82 in 10.0 mi South 8.1 mph - N/A   Clear
4:15 PM 73.4 °F - 26.6 °F 18% 29.83 in 10.0 mi South 8.1 mph - N/A   Clear
4:35 PM 73.4 °F - 26.6 °F 18% 29.82 in 10.0 mi South 10.4 mph - N/A   Clear
4:55 PM 73.4 °F - 28.4 °F 19% 29.82 in 10.0 mi SSE 9.2 mph - N/A   Clear
5:15 PM 69.8 °F - 30.2 °F 23% 29.83 in 10.0 mi SSE 6.9 mph - N/A   Clear
5:35 PM 68.0 °F - 30.2 °F 24% 29.84 in 10.0 mi ESE 5.8 mph - N/A   Clear
5:55 PM 68.0 °F - 30.2 °F 24% 29.84 in 10.0 mi SSE 6.9 mph - N/A   Clear
6:15 PM 64.4 °F - 30.2 °F 28% 29.84 in 10.0 mi SSE 8.1 mph - N/A   Clear
6:35 PM 64.4 °F - 30.2 °F 28% 29.85 in 10.0 mi SE 5.8 mph - N/A   Clear
6:55 PM 60.8 °F - 30.2 °F 31% 29.85 in 10.0 mi North 11.5 mph - N/A   Clear
7:15 PM 59.0 °F - 32.0 °F 36% 29.87 in 10.0 mi NNW 12.7 mph - N/A   Clear
7:35 PM 57.2 °F - 30.2 °F 36% 29.88 in 10.0 mi North 9.2 mph - N/A   Clear
7:55 PM 53.6 °F - 30.2 °F 41% 29.88 in 10.0 mi North 9.2 mph - N/A   Clear
8:15 PM 51.8 °F - 30.2 °F 44% 29.90 in 10.0 mi North 10.4 mph - N/A   Clear
8:35 PM 51.8 °F - 30.2 °F 44% 29.90 in 10.0 mi North 10.4 mph - N/A   Clear
8:55 PM 50.0 °F - 30.2 °F 47% 29.92 in 10.0 mi North 3.5 mph - N/A   Clear
9:15 PM 51.8 °F - 32.0 °F 47% 29.93 in 10.0 mi NNW 4.6 mph - N/A   Clear
9:35 PM 50.0 °F - 32.0 °F 50% 29.94 in 10.0 mi NNW 3.5 mph - N/A   Clear
9:55 PM 50.0 °F - 32.0 °F 50% 29.95 in 10.0 mi North 4.6 mph - N/A   Clear
10:15 PM 44.6 °F 41.4 °F 32.0 °F 61% 29.95 in 10.0 mi NNE 5.8 mph - N/A   Clear
10:35 PM 44.6 °F - 32.0 °F 61% 29.95 in 10.0 mi Calm Calm - N/A   Clear
10:55 PM 44.6 °F 41.4 °F 32.0 °F 61% 29.96 in 10.0 mi NNW 5.8 mph - N/A   Clear
11:35 PM 44.6 °F 43.1 °F 32.0 °F 61% 29.96 in 10.0 mi NW 3.5 mph - N/A   Clear